Manhattan, KS

11:04 AM CDT on October 17, 2017 (GMT -0500)
Manhattan Regional

Weather History for KMHK - June, 2013

Change the Weather History Date:

Sunday, June 23, 2013

  Actual Average Record
Temperature  
Mean Temperature 80 °F 76 °F  
Max Temperature 92 °F 88 °F 96 °F (2012)
Min Temperature 67 °F 64 °F 55 °F (2004)
Degree Days  
Heating Degree Days 0 0  
Month to date heating degree days 9 8  
Since 1 June heating degree days 9 8  
Since 1 July heating degree days 5184 5312  
Cooling Degree Days 15 11  
Month to date cooling degree days 226 188  
Year to date cooling degree days 362 288  
Since 1 June cooling degree days 226 188  
Growing Degree Days 28 (Base 50)    
Moisture  
Dew Point 68 °F    
Average Humidity 73    
Maximum Humidity 97    
Minimum Humidity 49    
Precipitation  
Precipitation 0.97 in 0.17 in 0.97 in (2013)
Month to date precipitation 2.14 4.08  
Year to date precipitation 11.75 15.28  
Sea Level Pressure  
Sea Level Pressure 29.84 in    
Wind  
Wind Speed 11 mph (SE)    
Max Wind Speed 25 mph    
Max Gust Speed 35 mph    
Visibility 8 miles    
Events Rain , Thunderstorm    
T = Trace of Precipitation, MM = Missing Value Source: NWS Daily Summary

Daily Weather History Graph

Daily Weather History Graph

Search for Another Location

Airport or City:

Trip Planner

Search our weather history database for the weather conditions in past years. The results will help you decide how hot, cold, wet, or windy it might be!

Date:

Astronomy

Jun. 23, 2013 Rise Set
Actual Time 6:01 AM CDT 8:56 PM CDT
Civil Twilight 5:29 AM CDT 9:28 PM CDT
Nautical Twilight 4:48 AM CDT 10:09 PM CDT
Astronomical Twilight 4:01 AM CDT 10:56 PM CDT
Moon 9:10 PM CDT (6/23) 6:19 AM CDT (6/23)
Length of Visible Light 15h 59m
Length of Day
14h 55m
Full, 100% of the Moon is Illuminated
Jun 23
Full
Jun 29
Last Quarter
Jul 8
New
Jul 15
First Quarter
Jul 22
Full

Hourly Weather History & Observations

Time (CDT) Temp. Heat Index Dew Point Humidity Pressure Visibility Wind Dir Wind Speed Gust Speed Precip Events Conditions
12:52 AM 81.0 °F 83.0 °F 66.0 °F 60% 29.80 in 10.0 mi South 17.3 mph 25.3 mph N/A   Clear
1:52 AM 79.0 °F - 66.0 °F 64% 29.79 in 10.0 mi South 16.1 mph 27.6 mph N/A   Clear
2:52 AM 79.0 °F - 66.0 °F 64% 29.78 in 10.0 mi South 12.7 mph 24.2 mph N/A   Clear
3:52 AM 79.0 °F - 66.0 °F 64% 29.79 in 10.0 mi South 11.5 mph 26.5 mph N/A   Clear
4:52 AM 79.0 °F - 66.9 °F 66% 29.78 in 10.0 mi South 12.7 mph 19.6 mph N/A   Clear
5:52 AM 78.1 °F - 66.9 °F 68% 29.77 in 10.0 mi SSW 11.5 mph 21.9 mph N/A   Clear
6:45 AM 78.8 °F - 66.2 °F 65% 29.79 in 10.0 mi SSW 18.4 mph 23.0 mph N/A Thunderstorm Partly Cloudy
6:52 AM 78.1 °F - 66.9 °F 68% 29.76 in 10.0 mi SSW 16.1 mph 25.3 mph N/A   Scattered Clouds
7:44 AM 68.0 °F - 66.2 °F 94% 29.91 in 2.5 mi North 15.0 mph 24.2 mph 0.09 in Rain Heavy Rain
7:52 AM 68.0 °F - 66.9 °F 96% 29.88 in 2.5 mi North 9.2 mph 24.2 mph 0.16 in Rain Heavy Rain
8:02 AM 66.2 °F - 66.2 °F 100% 29.92 in 1.2 mi North 11.5 mph 19.6 mph 0.15 in Rain Heavy Rain
8:07 AM 66.2 °F - 66.2 °F 100% 29.92 in 0.8 mi NNE 10.4 mph 17.3 mph 0.35 in Rain Heavy Rain
8:21 AM 68.0 °F - 66.2 °F 94% 29.92 in 1.8 mi ENE 11.5 mph - 0.52 in Rain Heavy Rain
8:24 AM 68.0 °F - 66.2 °F 94% 29.92 in 2.5 mi East 12.7 mph - 0.52 in Rain Light Rain
8:31 AM 68.0 °F - 68.0 °F 100% 29.90 in 8.0 mi East 15.0 mph - 0.52 in Rain Light Rain
8:52 AM 68.0 °F - 68.0 °F 100% 29.87 in 10.0 mi ENE 11.5 mph - 0.52 in   Overcast
9:10 AM 68.0 °F - 66.2 °F 94% 29.89 in 10.0 mi ENE 12.7 mph - N/A   Overcast
9:33 AM 68.0 °F - 66.2 °F 94% 29.89 in 1.5 mi East 13.8 mph 18.4 mph 0.17 in Rain Rain
9:36 AM 66.2 °F - 66.2 °F 100% 29.89 in 0.8 mi East 13.8 mph 17.3 mph 0.28 in Rain Heavy Rain
9:45 AM 68.0 °F - 66.2 °F 94% 29.90 in 2.0 mi ENE 13.8 mph - 0.29 in Rain Light Rain
9:52 AM 68.0 °F - 66.9 °F 96% 29.86 in 10.0 mi ENE 10.4 mph - 0.29 in   Overcast
10:03 AM 68.0 °F - 66.2 °F 94% 29.89 in 10.0 mi ENE 9.2 mph - N/A   Overcast
10:39 AM 68.0 °F - 66.2 °F 94% 29.91 in 10.0 mi East 6.9 mph - N/A   Mostly Cloudy
10:52 AM 69.1 °F - 66.9 °F 93% 29.88 in 10.0 mi ENE 9.2 mph - 0.00 in   Mostly Cloudy
11:52 AM 70.0 °F - 68.0 °F 93% 29.86 in 10.0 mi NE 5.8 mph - N/A   Clear
12:52 PM 72.0 °F - 70.0 °F 93% 29.85 in 10.0 mi East 3.5 mph - N/A   Overcast
1:52 PM 82.9 °F 89.4 °F 73.9 °F 74% 29.78 in 10.0 mi SSE 18.4 mph 26.5 mph N/A   Clear
2:52 PM 89.1 °F 95.0 °F 71.1 °F 55% 29.77 in 10.0 mi South 16.1 mph 23.0 mph N/A   Clear
3:52 PM 91.0 °F 95.6 °F 69.1 °F 48% 29.77 in 10.0 mi South 15.0 mph 23.0 mph N/A   Partly Cloudy
4:52 PM 90.0 °F 94.5 °F 69.1 °F 50% 29.78 in 10.0 mi South 11.5 mph - N/A   Clear
5:52 PM 90.0 °F 95.4 °F 70.0 °F 52% 29.78 in 10.0 mi South 13.8 mph - N/A   Partly Cloudy
6:52 PM 87.1 °F 92.8 °F 71.1 °F 59% 29.78 in 10.0 mi SSE 5.8 mph - N/A   Overcast
7:52 PM 86.0 °F 92.2 °F 72.0 °F 63% 29.78 in 10.0 mi SSE 6.9 mph - N/A   Mostly Cloudy
8:52 PM 84.0 °F 87.0 °F 68.0 °F 58% 29.78 in 10.0 mi South 13.8 mph - N/A   Clear
9:52 PM 82.0 °F 85.5 °F 69.1 °F 65% 29.81 in 10.0 mi SSE 11.5 mph - N/A   Clear
10:52 PM 81.0 °F 83.8 °F 68.0 °F 65% 29.85 in 10.0 mi South 12.7 mph - N/A   Clear
11:52 PM 80.1 °F 82.7 °F 68.0 °F 67% 29.85 in 10.0 mi South 10.4 mph - N/A   Clear